"Pseudo-MPEC" for C91GEG2

Created 2023 Mar 26 16:22:05 UT using Find_Orb

Click here for an explanation of pseudo-MPECs

 
 Astrometry: 
     C91GEG2  C2023 03 26)d^n`,eF6jDFNw(C!]$5;KZOhVL/E?()dPCpoia_g-3dj1@Mi/C:W68
     C91GEG2  C2023 03 26iL(FxlErr(U\2y-(BngdUU(EfHM/XJ#Astrometry!v,GNRGFJO`W68
     C91GEG2  C2023 03 26a!Giwo1a%fj$,lQo$UrQXM0NL4WNOs)P[FMB%9redacted;f)yY5W68
     C91GEG2  C2023 03 26n7jg=BEE0sNDQWMJ:$fu$nr)a^2aqG//8v4vK6,y**OX.j\Ne`B]W68
     C91GEG2*1C2023 03 26.20550610 11 02.270+15 08 01.36   ~3Q5q 17.94GVNEOCPG96
     C91GEG2 1C2023 03 26.21111110 11 09.726+15 05 39.30   ~3Q5q 18.22GVNEOCPG96
     C91GEG2 1C2023 03 26.21673010 11 17.171+15 03 16.81   ~3Q5q 17.95GVNEOCPG96
     C91GEG2 1C2023 03 26.22235410 11 24.673+15 00 52.24   ~3Q5q 17.84GVNEOCPG96
     C91GEG2 KC2023 03 26C*v/EG1T0#+77''g;EqyuO-?eclick\*%XBHbXa?CPFGA](]oS=fH36
     C91GEG2 KC2023 03 26Rlp`1here[vaT8/qVAXON%du!W^?Lk]mCOc];DYW+hIo_Yj=./lhH36
     C91GEG2 KC2023 03 26sAhuyn%q+ro5[for,PZ@ae.explanation04mi%dw40ea,.6_4_dH36
     C91GEG2  C2023 03 26.35731510 16 01.678+14 10 46.70   ~3QCq 18.07oVNEOCPT05
     C91GEG2  C2023 03 26.36847910 16 15.034+14 06 01.48   ~3QCq 18.12oVNEOCPT05
     C91GEG2 KC2023 03 26.37840210 15 06.250+13 51 32.94   ~3Q9M 17.75GVNEOCPI52
     C91GEG2 KC2023 03 26.37891910 15 07.081+13 51 18.90   ~3Q9M 17.96GVNEOCPI52
     C91GEG2 KC2023 03 26.37944110 15 07.952+13 51 04.64   ~3Q9M 18.16GVNEOCPI52
     C91GEG2 KC2023 03 26.37997010 15 08.806+13 50 50.03   ~3Q9M 18.06GVNEOCPI52
     C91GEG2  C2023 03 26.38185110 16 31.066+14 00 17.96   ~3QCq 18.39oVNEOCPT05

Station data:
(G96) Mt. Lemmon Survey  (N32.442751 W110.788720)  US/Arizona.  Observers T.
   A. Pruyne, B. M. Africano, E. J. Christensen, G. A. Farneth, D. C. Fuls,
   A. R. Gibbs, A. D. Grauer, H. Gröller, J. A. Johnson, R. A. Kowalski, S.
   M. Larson, G. J. Leonard, D. Rankin, R. L. Seaman, F. C. Shelly, K. W.
   Wierzchoś. 1.5-m reflector + 10K CCD.
(H36) Sandlot Observatory, Scranton  (N38.797690 W95.706400)  US/Kansas.
   Observer G. Hug. 0.56-m reflector + CCD.
(I52) Steward Observatory, Mt. Lemmon Station  (N32.442544 W110.788920)
   US/Arizona.  Observers T. A. Pruyne, B. M. Africano, E. J. Christensen, G.
   A. Farneth, D. C. Fuls, A. R. Gibbs, A. D. Grauer, H. Gröller, J. A.
   Johnson, R. A. Kowalski, S. M. Larson, G. J. Leonard, D. Rankin, R. L.
   Seaman, F. C. Shelly, K. W. Wierzchoś. 1.0-m reflector + CCD.
(T05) ATLAS-HKO, Haleakala  (N20.707571 W156.257010)  US/Hawaii.  Observers
   L. Denneau, A. Heinze, H. Weiland, J. Tonry, H. Flewelling, A.
   Fitzsimmons, D. Young, B. Stalder. Measurers L. Denneau, A. Heinze, J.
   Tonry. 0.5-m f/2.0 Schmidt + CCD.
(W68) ATLAS Chile, Rio Hurtado  (S30.471010 W70.764980)  Chile.

Orbital elements:  C91GEG2
   Perigee 2023 Mar 23.86460 +/- 0.0118 TT = 20:45:01 (JD 2460027.36460)
Epoch 2023 Mar 26.0 TT = JDT 2460029.5                           AutoNEOCP
q550925.006 +/- 701                 (J2000 equator)
H   28.90 G 0.15                    Peri.  127.61813 +/- 0.19
                                    Node   350.37995 +/- 0.0015
e   1.9895864 +/- 0.00487           Incl.   42.04277 +/- 0.0024
From 18 observations 2023 Mar. 26 (6.4 hr); mean residual 0".35
Residuals in arcseconds: 
230326 W68  .29-  .66+    230326 G96  .68-  .93+    230326 T05  .31+  .14-    
230326 W68  .62+  .51-    230326 G96  .17-  .24+    230326 I52  .35-  .11-    
230326 W68  .00   .51-    230326 H36  .31+  .20-    230326 I52  .43-  .00     
230326 W68  .11-  .21-    230326 H36  .28+  .33-    230326 I52  .06-  .02+    
230326 G96  .07+  .13-    230326 H36  .26+  .18-    230326 I52  .12-  .11-    
230326 G96  .23-  .18+    230326 T05  .37+  .17-    230326 T05  .02-  .63+    

Ephemerides (geocentric):
Date (UTC) HH   RA             Dec           delta  r     elong  mag " sig PA
---- --------  ------------   ------------  ------ ------ -----  --- --------
2023 03 26 16  10 26 23.917   +12 07 25.43  622179 1.0010 148.4 18.4 3.30 124
2023 03 26 17  10 27 44.339   +11 50 35.19  624170 1.0011 148.8 18.4 4.02 125
2023 03 26 18  10 29 04.100   +11 33 49.91  626183 1.0011 149.2 18.4 4.81 126
2023 03 26 19  10 30 23.204   +11 17 09.65  628218 1.0011 149.5 18.4 5.66 126
2023 03 26 20  10 31 41.658   +11 00 34.49  630275 1.0012 149.9 18.4 6.57 127
2023 03 26 21  10 32 59.470   +10 44 04.49  632353 1.0012 150.2 18.4 7.54 127
2023 03 26 22  10 34 16.643   +10 27 39.71  634453 1.0013 150.6 18.4 8.57 127
2023 03 26 23  10 35 33.186   +10 11 20.20  636573 1.0013 151.0 18.4 9.65 128
2023 03 27 00  10 36 49.104   +09 55 06.04  638714 1.0013 151.3 18.4 10.8 128
2023 03 27 01  10 38 04.403   +09 38 57.26  640876 1.0014 151.7 18.4 12.0 128
2023 03 27 02  10 39 19.089   +09 22 53.91  643058 1.0014 152.0 18.4 13.2 128
2023 03 27 03  10 40 33.168   +09 06 56.05  645260 1.0014 152.4 18.4 14.5 129
2023 03 27 04  10 41 46.647   +08 51 03.70  647482 1.0015 152.7 18.4 15.9 129
2023 03 27 05  10 42 59.530   +08 35 16.92  649724 1.0015 153.0 18.4 17.3 129
2023 03 27 06  10 44 11.825   +08 19 35.73  651985 1.0015 153.4 18.4 18.7 129
2023 03 27 07  10 45 23.537   +08 04 00.17  654265 1.0016 153.7 18.4 20.2 129
2023 03 27 08  10 46 34.672   +07 48 30.28  656564 1.0016 154.0 18.3 21.7 129
2023 03 27 09  10 47 45.236   +07 33 06.07  658882 1.0017 154.4 18.3 23.3 129
2023 03 27 10  10 48 55.234   +07 17 47.57  661219 1.0017 154.7 18.3 24.9 130
2023 03 27 11  10 50 04.672   +07 02 34.81  663573 1.0017 155.0 18.3 26.6 130
2023 03 27 12  10 51 13.556   +06 47 27.81  665946 1.0018 155.3 18.3 28.3 130
2023 03 27 13  10 52 21.891   +06 32 26.58  668337 1.0018 155.6 18.3 30.0 130
2023 03 27 14  10 53 29.684   +06 17 31.15  670745 1.0018 155.9 18.3 31.8 130
2023 03 27 15  10 54 36.939   +06 02 41.51  673170 1.0019 156.2 18.3 33.6 130
2023 03 27 16  10 55 43.662   +05 47 57.69  675613 1.0019 156.5 18.3 35.4 130
2023 03 27 17  10 56 49.859   +05 33 19.69  678073 1.0019 156.8 18.3 37.3 130
2023 03 27 18  10 57 55.535   +05 18 47.51  680550 1.0020 157.1 18.3 39.2 130
2023 03 27 19  10 59 00.695   +05 04 21.17  683043 1.0020 157.4 18.3 41.2 130
2023 03 27 20  11 00 05.344   +04 50 00.67  685553 1.0021 157.7 18.3 43.1 130
2023 03 27 21  11 01 09.489   +04 35 46.01  688078 1.0021 158.0 18.3 45.1 130
2023 03 27 22  11 02 13.133   +04 21 37.18  690620 1.0021 158.3 18.3 47.1 130
2023 03 27 23  11 03 16.283   +04 07 34.18  693178 1.0022 158.6 18.3 49.2 131
2023 03 28 00  11 04 18.942   +03 53 37.02  695751 1.0022 158.9 18.3 51.3 131
2023 03 28 01  11 05 21.117   +03 39 45.67  698340 1.0022 159.1 18.3 53.4 131
2023 03 28 02  11 06 22.812   +03 26 00.15  700943 1.0023 159.4 18.3 55.5 131
2023 03 28 03  11 07 24.033   +03 12 20.43  703562 1.0023 159.7 18.3 57.6 131
2023 03 28 04  11 08 24.783   +02 58 46.51  706196 1.0023 159.9 18.3 59.8 131
2023 03 28 05  11 09 25.069   +02 45 18.37  708844 1.0024 160.2 18.3 62.0 131
2023 03 28 06  11 10 24.894   +02 31 56.00  711507 1.0024 160.5 18.3 64.2 131
2023 03 28 07  11 11 24.263   +02 18 39.39  714184 1.0025 160.7 18.3 66.4 131
2023 03 28 08  11 12 23.182   +02 05 28.52  716875 1.0025 161.0 18.3 68.7 131
2023 03 28 09  11 13 21.655   +01 52 23.38  719580 1.0025 161.2 18.3 71.0 131
2023 03 28 10  11 14 19.685   +01 39 23.94  722299 1.0026 161.5 18.3 73.2 131
2023 03 28 11  11 15 17.279   +01 26 30.19  725031 1.0026 161.7 18.3 75.5 131
2023 03 28 12  11 16 14.440   +01 13 42.11  727777 1.0026 162.0 18.3 77.8 131
2023 03 28 13  11 17 11.173   +01 00 59.68  730536 1.0027 162.2 18.3 80.2 131
2023 03 28 14  11 18 07.483   +00 48 22.86  733307 1.0027 162.4 18.3 82.5 131
2023 03 28 15  11 19 03.372   +00 35 51.66  736092 1.0027 162.7 18.3 84.8 131